Content
SEND FEEDBACK

Daily
Averages
Monthly
Summary
United States of America

DURANGO, COLORADO


Home > North America > United States > Colorado
Elevation: 6685 feet     Latitude: 37 09N     Longitude: 107 45W

WEATHER
 
SELECT A DAY
Number of Records: 182,751;   Date Range: 1/1/95 - 7/7/14
 
SHARE

PRINT THIS DATA

[ ← Previous Day ]
WEATHER ALMANAC - FEBRUARY 22, 2013
[ Next Day → ]
[ °C ]   °F
Weather ElementAverageHighLow
Temperature21.7 °F30.9 °F (1:53 pm)10.9 °F (11:53 pm)
Dewpoint14.6 °F23 °F (11:53 am)6.1 °F (10:53 pm)
Humidity75.7 %93 % (9:43 am)46 % (3:53 pm)
Barometer29.98 in30.15 in (11:53 pm)29.84 in (3:35 am)
Wind Speed5 mph23 mph (1:53 pm)
Wind Gust28.8 mph (1:53 pm)
Weather ElementAverage
Visibility7.7 mi
Wind DirectionESE (111.5 °)

Weather ElementTotal
Precipitation0.06 in
Heating Degree Days44.1 (Base 65)
Averaged from 33 records on February 22, 2013
WEATHER CONDITIONS BREAKOUT
WIND DIRECTION BREAKOUT
WEATHER BY HOUR - FEBRUARY 22, 2013
[ °C ]   °F
Local TimeTemperatureDewpointHumidityBarometerVisibilityWind DirectionWind SpeedGust SpeedPrecipitationEventsConditions
1:53 AM16.0 °F14.0 °F92 %29.96 in10.0 miCalmMostly Cloudy
2:53 AM18.0 °F16.0 °F92 %29.94 in10.0 miCalmOvercast
3:35 AM17.6 °F14.0 °F86 %29.84 in10.0 miCalmOvercast
3:53 AM18.0 °F12.9 °F81 %29.94 in10.0 miNorth (360°)5.8 mphOvercast
4:53 AM17.1 °F12.0 °F81 %29.96 in10.0 miCalmMostly Cloudy
5:44 AM17.6 °F12.2 °F79 %29.86 in10.0 miNNW (330°)3.5 mphMostly Cloudy
5:53 AM18.0 °F12.0 °F78 %29.98 in10.0 miCalmMostly Cloudy
6:53 AM18.0 °F12.9 °F81 %30.00 in10.0 miNorth (10°)5.8 mphOvercast
7:32 AM17.6 °F12.2 °F79 %29.88 in10.0 miCalmOvercast
7:53 AM18.0 °F14.0 °F84 %30.02 in10.0 miCalmOvercast
8:47 AM21.2 °F15.8 °F80 %29.90 in2.5 miCalm0.00 inSnowLight Snow
8:50 AM21.2 °F17.6 °F86 %29.90 in1.2 miCalm0.00 inSnowLight Snow
8:53 AM21.0 °F17.1 °F85 %30.02 in1.0 miCalm0.00 inSnowLight Snow
9:43 AM21.2 °F19.4 °F93 %29.91 in0.5 miCalm0.00 inFog-SnowLight Snow
9:53 AM21.9 °F19.0 °F89 %30.03 in0.5 miNNW (330°)3.5 mph0.01 inFog-SnowSnow
10:02 AM23.0 °F19.4 °F86 %29.91 in0.5 miCalm0.01 inFog-SnowSnow
10:11 AM23.0 °F19.4 °F86 %29.91 in1.0 miCalm0.01 inSnowLight Snow
10:15 AM23.0 °F19.4 °F86 %29.91 in2.0 miCalm0.01 inSnowLight Snow
10:23 AM23.0 °F19.4 °F86 %29.91 in5.0 miCalm0.01 inSnowLight Snow
10:33 AM24.8 °F21.2 °F86 %29.91 in10.0 miCalm0.01 inMostly Cloudy
11:53 AM28.0 °F23.0 °F81 %30.04 in10.0 miWSW (240°)13.8 mphScattered Clouds
12:53 PM28.0 °F21.0 °F75 %30.01 in10.0 miWSW (250°)20.7 mph0.00 inPartly Cloudy
1:53 PM30.9 °F16.0 °F54 %29.98 in10.0 miWSW (250°)23.0 mph28.8 mph0.00 inPartly Cloudy
2:53 PM30.0 °F12.0 °F47 %29.97 in10.0 miWSW (250°)18.4 mph25.3 mphMostly Cloudy
3:53 PM30.9 °F12.0 °F46 %29.96 in10.0 miWSW (250°)23.0 mph27.6 mphOvercast
4:53 PM28.9 °F14.0 °F54 %30.01 in10.0 miNorth (350°)9.2 mph21.9 mphMostly Cloudy
5:53 PM27.0 °F12.9 °F56 %30.02 in10.0 miWSW (240°)12.7 mphScattered Clouds
6:53 PM24.1 °F12.9 °F62 %30.06 in10.0 miWSW (250°)8.1 mphClear
7:53 PM21.9 °F10.9 °F63 %30.09 in10.0 miWSW (250°)5.8 mphClear
8:53 PM19.9 °F9.0 °F62 %30.11 in10.0 miCalmClear
9:53 PM19.9 °F7.0 °F57 %30.13 in10.0 miWSW (250°)5.8 mphClear
10:53 PM16.0 °F6.1 °F65 %30.14 in10.0 miCalmClear
11:53 PM10.9 °F6.1 °F81 %30.15 in10.0 miENE (70°)4.6 mphClear
Hourly data recorded from KDRO, located miles away from Durango, Colorado







STORIES FROM OUR PARTNERS